Location: Newark
(7.0858°N, 171.3717°E)
Time: 10:16:59
(UTC+00:00)

LightSail 2 - Visible Passes

Search period start: 21 October 2019 00:00
Search period end: 31 October 2019 00:00
Orbit: 707 x 722 km, 24.0° (Epoch: 20 October)

Date Brightness Start Highest point End Pass type
(mag) Time Alt. Az. Time Alt. Az. Time Alt. Az.
21 Oct 6.9 06:50:02 10° NNW 06:53:27 18° NNE 06:56:44 10° NE visible
21 Oct 7.5 08:34:31 10° NW 08:35:45 17° NW 08:35:45 17° NW visible
22 Oct 6.0 07:37:09 10° NW 07:41:46 33° NNE 07:41:57 33° NNE visible
23 Oct 6.4 06:39:50 10° NW 06:44:02 25° NNE 06:48:13 10° ENE visible
23 Oct 6.7 08:24:39 10° WNW 08:27:14 30° WNW 08:27:14 30° WNW visible
24 Oct 5.3 07:27:08 10° NW 07:32:10 55° NNE 07:33:36 41° ENE visible
25 Oct 5.8 06:29:41 10° NW 06:34:29 39° NNE 06:39:18 10° E visible
25 Oct 6.0 08:15:01 10° WNW 08:19:03 48° WSW 08:19:03 48° WSW visible
26 Oct 5.1 07:17:18 10° WNW 07:22:26 84° SSW 07:25:33 24° ESE visible
26 Oct 8.1 09:04:01 10° WSW 09:04:35 12° WSW 09:04:35 12° WSW visible
27 Oct 6.5 08:05:46 10° W 08:10:19 31° SSW 08:11:09 30° S visible
28 Oct 6.1 07:07:45 10° W 07:12:40 45° SSW 07:17:35 10° SE visible
28 Oct 8.0 08:56:12 10° SW 08:56:47 11° SW 08:56:47 11° SW visible
28 Oct 7.7 17:49:44 10° SSW 17:52:53 16° SSE 17:56:02 10° ESE visible
29 Oct 7.5 07:57:08 10° WSW 08:00:34 18° SSW 08:03:24 12° SSE visible
29 Oct 7.9 16:53:41 10° S 16:55:07 11° SSE 16:56:33 10° SE visible
30 Oct 7.1 06:58:39 10° W 07:02:51 25° SSW 07:07:03 10° SSE visible
30 Oct 7.0 17:38:40 10° SSW 17:43:07 28° SSE 17:47:32 10° E visible
